PDA5501 UKLL-UKBB

Flight info

Callsign PDA5501
Flight time 0h 48m
Altitude 37000
Route ADBA1G ADBAN N983 SORON M986 SLV SLV2W
Aircraft A320/M-SDE3FGHIJ4RWY/LB1

Departure

Time 2026-04-30 11:35
Airport Lviv International Airport (UKLL)

Arrival

Time 2026-04-30 12:23
Airport Boryspil International Airport (UKBB)
Time Latitude Longitude Altitude Speed Heading
2026-04-30 11:04 49.81320 23.95837 1063 ft 0 kts 45°
2026-04-30 11:25 49.81310 23.95822 1067 ft 3 kts 45°
2026-04-30 11:25 49.81286 23.95783 1066 ft 2 kts 45°
2026-04-30 11:26 49.81271 23.95739 1070 ft 2 kts 118°
2026-04-30 11:26 49.81272 23.95733 1070 ft 0 kts 136°
2026-04-30 11:31 49.81270 23.95737 1070 ft 2 kts 136°
2026-04-30 11:31 49.81228 23.95799 1065 ft 0 kts 136°
2026-04-30 11:32 49.81211 23.95825 1065 ft 13 kts 136°
2026-04-30 11:32 49.81068 23.96031 1066 ft 15 kts 152°
2026-04-30 11:32 49.81000 23.96031 1065 ft 15 kts 178°
2026-04-30 11:33 49.80753 23.96171 1065 ft 27 kts 136°
2026-04-30 11:33 49.80576 23.96436 1066 ft 42 kts 136°
2026-04-30 11:33 49.80335 23.96801 1063 ft 50 kts 135°
2026-04-30 11:33 49.80103 23.97146 1066 ft 29 kts 135°
2026-04-30 11:34 49.80000 23.97311 1066 ft 15 kts 119°
2026-04-30 11:34 49.79956 23.97444 1065 ft 11 kts 169°
2026-04-30 11:34 49.79940 23.97386 1065 ft 7 kts 321°
2026-04-30 11:34 49.80068 23.97199 1065 ft 58 kts 316°
2026-04-30 11:35 49.80509 23.96537 1064 ft 116 kts 316°
2026-04-30 11:35 49.81200 23.95516 1135 ft 151 kts 319°
2026-04-30 11:35 49.81954 23.94419 1801 ft 149 kts 318°
2026-04-30 11:35 49.82745 23.93360 2412 ft 155 kts 330°
2026-04-30 11:36 49.83850 23.93027 2709 ft 178 kts 12°
2026-04-30 11:36 49.84885 23.94177 2963 ft 205 kts 58°
2026-04-30 11:36 49.85243 23.96430 3343 ft 230 kts 84°
2026-04-30 11:36 49.85223 23.99036 3788 ft 253 kts 90°
2026-04-30 11:37 49.85081 24.01803 4594 ft 262 kts 93°
2026-04-30 11:37 49.84917 24.04638 5556 ft 265 kts 92°
2026-04-30 11:37 49.84768 24.07502 6471 ft 269 kts 91°
2026-04-30 11:37 49.84641 24.10410 7375 ft 272 kts 91°
2026-04-30 11:38 49.84530 24.13347 8284 ft 275 kts 90°
2026-04-30 11:38 49.84430 24.16316 9182 ft 278 kts 90°
2026-04-30 11:38 49.84337 24.19320 10047 ft 281 kts 89°
2026-04-30 11:38 49.84246 24.22442 10439 ft 302 kts 89°
2026-04-30 11:39 49.84154 24.25815 10642 ft 325 kts 89°
2026-04-30 11:39 49.84054 24.29404 11022 ft 339 kts 89°
2026-04-30 11:39 49.83946 24.33087 11662 ft 344 kts 89°
2026-04-30 11:39 49.83831 24.36816 12347 ft 348 kts 89°
2026-04-30 11:40 49.83712 24.40572 13029 ft 352 kts 89°
2026-04-30 11:40 49.83589 24.44371 13715 ft 355 kts 89°
2026-04-30 11:40 49.83465 24.48229 14367 ft 359 kts 89°
2026-04-30 11:40 49.83338 24.52105 14968 ft 362 kts 89°
2026-04-30 11:41 49.83208 24.56008 15548 ft 364 kts 89°
2026-04-30 11:41 49.83079 24.59946 16143 ft 367 kts 89°
2026-04-30 11:41 49.82953 24.63908 16731 ft 370 kts 89°
2026-04-30 11:41 49.82829 24.67845 17313 ft 373 kts 89°
2026-04-30 11:42 49.82697 24.71985 17487 ft 387 kts 89°
2026-04-30 11:42 49.82560 24.76170 17644 ft 401 kts 89°
2026-04-30 11:42 49.82413 24.80555 17786 ft 414 kts 89°
2026-04-30 11:42 49.82257 24.85087 17933 ft 426 kts 89°
2026-04-30 11:43 49.82092 24.89724 18146 ft 435 kts 89°
2026-04-30 11:43 49.81920 24.94416 18551 ft 438 kts 89°
2026-04-30 11:43 49.81746 24.99137 18965 ft 441 kts 89°
2026-04-30 11:43 49.81569 25.03908 19387 ft 443 kts 89°
2026-04-30 11:44 49.81392 25.08669 19812 ft 444 kts 89°
2026-04-30 11:44 49.81214 25.13438 20303 ft 443 kts 89°
2026-04-30 11:44 49.81036 25.18177 20948 ft 439 kts 89°
2026-04-30 11:44 49.80858 25.22870 21611 ft 435 kts 88°
2026-04-30 11:45 49.80678 25.27524 22296 ft 430 kts 88°
2026-04-30 11:45 49.80497 25.32123 22985 ft 426 kts 88°
2026-04-30 11:45 49.80315 25.36680 23692 ft 421 kts 88°
2026-04-30 11:45 49.80151 25.41176 24328 ft 416 kts 86°
2026-04-30 11:46 49.80067 25.45617 24925 ft 410 kts 85°
2026-04-30 11:46 49.80043 25.50008 25543 ft 405 kts 84°
2026-04-30 11:46 49.80047 25.54343 26171 ft 400 kts 83°
2026-04-30 11:46 49.80055 25.58660 26518 ft 404 kts 84°
2026-04-30 11:47 49.80054 25.63056 26654 ft 413 kts 84°
2026-04-30 11:47 49.80041 25.67542 26782 ft 421 kts 84°
2026-04-30 11:47 49.80012 25.72109 26952 ft 428 kts 85°
2026-04-30 11:47 49.79972 25.76758 27085 ft 435 kts 85°
2026-04-30 11:48 49.79924 25.81473 27217 ft 441 kts 85°
2026-04-30 11:48 49.79873 25.86192 27349 ft 447 kts 85°
2026-04-30 11:48 49.79819 25.91047 27484 ft 453 kts 85°
2026-04-30 11:48 49.79763 25.95956 27651 ft 458 kts 85°
2026-04-30 11:49 49.79704 26.00887 28024 ft 459 kts 85°
2026-04-30 11:49 49.79643 26.05817 28476 ft 458 kts 85°
2026-04-30 11:49 49.79584 26.10741 28954 ft 457 kts 85°
2026-04-30 11:49 49.79523 26.15640 29433 ft 456 kts 85°
2026-04-30 11:50 49.79459 26.20536 29911 ft 455 kts 85°
2026-04-30 11:50 49.79395 26.25441 30307 ft 457 kts 86°
2026-04-30 11:50 49.79331 26.30371 30585 ft 459 kts 86°
2026-04-30 11:50 49.79264 26.35328 30901 ft 460 kts 86°
2026-04-30 11:51 49.79194 26.40282 31227 ft 461 kts 86°
2026-04-30 11:51 49.79120 26.45250 31559 ft 462 kts 86°
2026-04-30 11:51 49.79044 26.50153 31884 ft 463 kts 86°
2026-04-30 11:51 49.78962 26.55190 32203 ft 463 kts 87°
2026-04-30 11:52 49.78882 26.60112 32546 ft 464 kts 87°
2026-04-30 11:52 49.78799 26.65092 32880 ft 465 kts 87°
2026-04-30 11:52 49.78714 26.70102 33212 ft 466 kts 87°
2026-04-30 11:52 49.78628 26.75128 33375 ft 469 kts 88°
2026-04-30 11:53 49.78451 26.85255 33380 ft 471 kts 88°
2026-04-30 11:53 49.78258 26.95387 33380 ft 471 kts 88°
2026-04-30 11:54 49.78060 27.05512 33379 ft 471 kts 88°
2026-04-30 11:54 49.77850 27.15637 33377 ft 471 kts 88°
2026-04-30 11:55 49.77628 27.25758 33380 ft 471 kts 88°
2026-04-30 11:55 49.77402 27.35904 33349 ft 472 kts 89°
2026-04-30 11:56 49.77166 27.46066 33358 ft 473 kts 89°
2026-04-30 11:56 49.76922 27.56254 33360 ft 474 kts 89°
2026-04-30 11:57 49.76664 27.66447 33364 ft 474 kts 89°
2026-04-30 11:57 49.76395 27.76630 33364 ft 474 kts 89°
2026-04-30 11:58 49.76855 27.86708 33368 ft 466 kts 73°
2026-04-30 11:58 49.79026 27.96068 33364 ft 462 kts 65°
2026-04-30 11:59 49.81397 28.05259 33373 ft 462 kts 65°
2026-04-30 11:59 49.83755 28.14527 33371 ft 462 kts 65°
2026-04-30 12:00 49.86102 28.23811 33370 ft 462 kts 65°
2026-04-30 12:00 49.88447 28.33091 33383 ft 462 kts 65°
2026-04-30 12:01 49.90788 28.42400 33356 ft 464 kts 66°
2026-04-30 12:01 49.93136 28.51745 33350 ft 465 kts 66°
2026-04-30 12:02 49.95479 28.61099 33340 ft 466 kts 66°
2026-04-30 12:02 49.97825 28.70503 33343 ft 466 kts 66°
2026-04-30 12:03 50.01319 28.84585 32441 ft 464 kts 66°
2026-04-30 12:03 50.02472 28.89268 31608 ft 464 kts 66°
2026-04-30 12:04 50.03621 28.93950 30819 ft 463 kts 66°
2026-04-30 12:04 50.04766 28.98626 29968 ft 461 kts 66°
2026-04-30 12:04 50.05901 29.03299 28932 ft 460 kts 66°
2026-04-30 12:04 50.07026 29.07964 27822 ft 462 kts 67°
2026-04-30 12:05 50.08157 29.12686 26504 ft 469 kts 67°
2026-04-30 12:05 50.09263 29.17325 26201 ft 455 kts 67°
2026-04-30 12:05 50.10337 29.21848 26051 ft 434 kts 67°
2026-04-30 12:05 50.11366 29.26177 25421 ft 421 kts 67°
2026-04-30 12:06 50.12375 29.30417 24656 ft 414 kts 67°
2026-04-30 12:06 50.13372 29.34597 23893 ft 408 kts 67°
2026-04-30 12:06 50.14332 29.38629 23419 ft 389 kts 67°
2026-04-30 12:06 50.15257 29.42530 22699 ft 379 kts 67°
2026-04-30 12:07 50.16169 29.46380 22162 ft 378 kts 67°
2026-04-30 12:07 50.17071 29.50190 21610 ft 371 kts 67°
2026-04-30 12:07 50.17917 29.53971 21074 ft 368 kts 72°
2026-04-30 12:07 50.18419 29.57886 20546 ft 368 kts 81°
2026-04-30 12:08 50.18513 29.61868 20028 ft 368 kts 90°
2026-04-30 12:08 50.18365 29.65846 19522 ft 366 kts 91°
2026-04-30 12:08 50.18214 29.69800 19023 ft 365 kts 91°
2026-04-30 12:08 50.18063 29.73736 18519 ft 363 kts 92°
2026-04-30 12:09 50.17912 29.77667 17956 ft 362 kts 91°
2026-04-30 12:09 50.17764 29.81576 17527 ft 359 kts 91°
2026-04-30 12:09 50.17615 29.85446 17112 ft 356 kts 91°
2026-04-30 12:09 50.17465 29.89296 16584 ft 355 kts 91°
2026-04-30 12:10 50.17316 29.93124 16049 ft 353 kts 91°
2026-04-30 12:10 50.17168 29.96928 15527 ft 351 kts 91°
2026-04-30 12:10 50.17021 30.00718 15013 ft 349 kts 91°
2026-04-30 12:10 50.16872 30.04482 14505 ft 347 kts 91°
2026-04-30 12:11 50.16720 30.08216 13994 ft 344 kts 91°
2026-04-30 12:11 50.16620 30.10677 13618 ft 343 kts 91°
2026-04-30 12:11 50.16422 30.15573 12874 ft 332 kts 92°
2026-04-30 12:11 50.16275 30.19112 12396 ft 321 kts 92°
2026-04-30 12:12 50.16180 30.21391 12131 ft 314 kts 92°
2026-04-30 12:12 50.15988 30.25850 11606 ft 302 kts 91°
2026-04-30 12:12 50.15896 30.28001 11347 ft 297 kts 92°
2026-04-30 12:12 50.15762 30.31181 10959 ft 291 kts 92°
2026-04-30 12:13 50.15631 30.34290 10578 ft 286 kts 92°
2026-04-30 12:13 50.15500 30.37364 10199 ft 280 kts 91°
2026-04-30 12:13 50.15331 30.41342 9646 ft 275 kts 92°
2026-04-30 12:13 50.15244 30.43349 9366 ft 273 kts 92°
2026-04-30 12:14 50.15115 30.46298 8954 ft 272 kts 91°
2026-04-30 12:14 50.14983 30.49234 8549 ft 271 kts 92°
2026-04-30 12:14 50.14854 30.52152 8151 ft 268 kts 92°
2026-04-30 12:14 50.14728 30.55039 7756 ft 264 kts 92°
2026-04-30 12:15 50.14604 30.57910 7404 ft 266 kts 91°
2026-04-30 12:15 50.14480 30.60728 7105 ft 260 kts 92°
2026-04-30 12:15 50.14354 30.63488 6799 ft 250 kts 92°
2026-04-30 12:15 50.14231 30.66148 6476 ft 242 kts 91°
2026-04-30 12:16 50.14113 30.68719 6155 ft 234 kts 91°
2026-04-30 12:16 50.13998 30.71213 5838 ft 227 kts 92°
2026-04-30 12:16 50.13883 30.73633 5519 ft 221 kts 91°
2026-04-30 12:16 50.13771 30.75998 5174 ft 217 kts 91°
2026-04-30 12:17 50.13555 30.80502 4658 ft 197 kts 91°
2026-04-30 12:17 50.13457 30.82572 4387 ft 187 kts 90°
2026-04-30 12:17 50.13468 30.84529 4183 ft 173 kts 76°
2026-04-30 12:18 50.13834 30.86224 4090 ft 161 kts 57°
2026-04-30 12:18 50.14483 30.87603 4003 ft 156 kts 41°
2026-04-30 12:18 50.15307 30.88628 3883 ft 151 kts 23°
2026-04-30 12:18 50.16283 30.89167 3718 ft 147 kts
2026-04-30 12:19 50.17297 30.89272 3527 ft 144 kts
2026-04-30 12:19 50.18288 30.89346 3339 ft 142 kts
2026-04-30 12:19 50.19269 30.89418 3146 ft 141 kts 359°
2026-04-30 12:19 50.20248 30.89490 2954 ft 140 kts 359°
2026-04-30 12:20 50.21213 30.89561 2759 ft 138 kts 359°
2026-04-30 12:20 50.22170 30.89630 2557 ft 138 kts
2026-04-30 12:20 50.23133 30.89700 2370 ft 138 kts 359°
2026-04-30 12:20 50.24083 30.89770 2181 ft 138 kts
2026-04-30 12:21 50.25033 30.89840 2014 ft 134 kts 360°
2026-04-30 12:21 50.25953 30.89907 1817 ft 132 kts 360°
2026-04-30 12:21 50.26867 30.89974 1621 ft 132 kts
2026-04-30 12:21 50.27778 30.90040 1438 ft 130 kts 360°
2026-04-30 12:22 50.28684 30.90107 1249 ft 130 kts 359°
2026-04-30 12:22 50.29594 30.90173 1057 ft 131 kts 359°
2026-04-30 12:22 50.30510 30.90238 883 ft 131 kts 359°
2026-04-30 12:22 50.31417 30.90306 700 ft 131 kts
2026-04-30 12:23 50.32325 30.90373 507 ft 131 kts
2026-04-30 12:23 50.33192 30.90443 417 ft 114 kts
2026-04-30 12:23 50.33827 30.90482 423 ft 67 kts
2026-04-30 12:23 50.34131 30.90501 419 ft 30 kts
2026-04-30 12:24 50.34326 30.90460 416 ft 25 kts 334°
2026-04-30 12:24 50.34450 30.90360 418 ft 18 kts 334°
2026-04-30 12:24 50.34484 30.90334 413 ft 0 kts 334°
2026-04-30 12:25 50.34497 30.90323 415 ft 6 kts 329°
2026-04-30 12:25 50.34502 30.90244 409 ft 10 kts 246°
2026-04-30 12:25 50.34433 30.90204 414 ft 13 kts 179°
2026-04-30 12:26 50.34338 30.90198 416 ft 15 kts 185°
2026-04-30 12:26 50.34225 30.90189 413 ft 17 kts 183°
2026-04-30 12:26 50.34096 30.90179 409 ft 20 kts 182°
2026-04-30 12:26 50.33948 30.90169 416 ft 23 kts 183°
2026-04-30 12:27 50.33781 30.90156 409 ft 25 kts 183°
2026-04-30 12:27 50.33621 30.90145 410 ft 16 kts 182°
2026-04-30 12:27 50.33522 30.90128 416 ft 12 kts 204°
2026-04-30 12:27 50.33497 30.89995 415 ft 15 kts 271°
2026-04-30 12:28 50.33502 30.89816 415 ft 18 kts 272°
2026-04-30 12:28 50.33523 30.89729 409 ft 8 kts 351°
2026-04-30 12:28 50.33561 30.89732 412 ft 5 kts
2026-04-30 12:28 50.33575 30.89733 415 ft 0 kts